Portada
METAR-TAF:

METAR-TAF

Aeroports :

Boscobel Airport

Boscobel, Wisconsin, Estats Units d'Amèrica

latitud: 43-09-22N, longitud: 090-40-39W, altitud: 205 m

Observació

L'informe es va fer fa 57 minuts, a les 23:53 UTC
Vent 7 kt del Nord/Nord-Oest
Temperatura -11°C
Humitat 61%
Pressió 1023 hPa
Visibilitat: 16.1 km
Cel clar

METAR: KOVS 192353Z AUTO 34007KT 10SM CLR M11/M17 A3022 RMK AO2 SLP248 60000 T11061172 11061 21106 53005

Hora: 18:50 (00:50 UTC)


TAF: manca

Observacions i pronòstics meteorològics de més de 4000 aeroports (METAR i TAF).

Les estacions disponibles són els punts grocs i vermells al mapa.

Posi el ratolí al punt desitjat per veure el nom de l'estació.

Feu clic per veure les observacions i els pronòstics meteorològics.

Per canviar el mapa: feu clic els botons verds amb una creu de color negre per apropar; al botó verd amb un guió per allunyar la imatge; o en les fletxes verdes per a mapes adjacents.


METAR-TAF: